This is the latest recevied weather packets stored in our database for station/object DL7HMX-13. If no packets are shown the sender has not sent any weather packets the latest 10 day(s).
| Time | Temp. | Humidity | Pressure | Rain* | Wind** | Luminosity | Snow |
|---|---|---|---|---|---|---|---|
| 1777930825 | 17.78° C | 63% | 1010.1 hPa | 0 mm | - | 0 W/m² | - |
| 1777930229 | 18.33° C | 62% | 1010.2 hPa | 0 mm | - | 0 W/m² | - |
| 1777929630 | 17.78° C | 63% | 1010.4 hPa | 0 mm | - | 0 W/m² | - |
| 1777929017 | 17.22° C | 67% | 1010.5 hPa | 0 mm | - | 0 W/m² | - |
| 1777928419 | 17.78° C | 63% | 1010.6 hPa | 0.25 mm | - | 0 W/m² | - |
| 1777927823 | 18.89° C | 57% | 1010.7 hPa | 0.25 mm | - | 0 W/m² | - |
| 1777927225 | 19.44° C | 55% | 1010.9 hPa | 0.25 mm | - | 0 W/m² | - |
| 1777926627 | 19.44° C | 56% | 1010.8 hPa | 0.25 mm | - | 0 W/m² | - |
| 1777926030 | 18.33° C | 58% | 1010.7 hPa | 0.25 mm | - | 0 W/m² | - |
| 1777925432 | 18.33° C | 63% | 1010.5 hPa | 0.25 mm | - | 0 W/m² | - |
| 1777924818 | 18.89° C | 57% | 1010.4 hPa | 0 mm | - | 0 W/m² | - |
| 1777924220 | 20.56° C | 48% | 1010.4 hPa | 0 mm | - | 0 W/m² | - |
| 1777923622 | 20.56° C | 48% | 1010.3 hPa | 0 mm | - | 0 W/m² | - |
| 1777923024 | 20.56° C | 46% | 1010.3 hPa | 0 mm | - | 0 W/m² | - |
| 1777922427 | 20.56° C | 50% | 1010.8 hPa | 0 mm | - | 0 W/m² | - |
| 1777921831 | 20.56° C | 50% | 1010.9 hPa | 0 mm | - | 0 W/m² | - |
| 1777921217 | 20.56° C | 46% | 1010.6 hPa | 0 mm | - | 0 W/m² | - |
| 1777920620 | 21.11° C | 47% | 1010.4 hPa | 0 mm | - | 0 W/m² | - |
| 1777920023 | 21.11° C | 50% | 1010.6 hPa | 0 mm | - | 0 W/m² | - |
| 1777919426 | 22.22° C | 46% | 1010.5 hPa | 0 mm | - | 0 W/m² | - |
| 1777918829 | 22.78° C | 44% | 1010.2 hPa | 0 mm | - | 0 W/m² | - |
| 1777918217 | 22.22° C | 44% | 1009.9 hPa | 0 mm | - | 1 W/m² | - |
| 1777917618 | 22.78° C | 43% | 1009.8 hPa | 0 mm | - | 3 W/m² | - |
| 1777917020 | 23.33° C | 41% | 1009.6 hPa | 0 mm | - | 5 W/m² | - |
| 1777916423 | 23.33° C | 39% | 1009.6 hPa | 0 mm | - | 9 W/m² | - |
* Rain latest hour (hover to see other rain measurements)
** Current wind speed in m/s (hover to see current wind gust speed)